STARLINK-5721 (55617 NORAD) Tracking and Keplerian Element Data

This shows tracking and keplerian element data for the satellite.

Feedback or suggestion? Click here.




ElementValue
Catalog55617
NameSTARLINK-5721
Epoch Orbit310
Epoch Day62.85432667
Epoch Year2023
RAAN237.7854
Inclination42.9989
Eccentricity0.0002171
Argument of Perigee264.3669
Mean Anonmoly95.6951
Mean Motion15.71354927
Decay Rate0.00085001
L11 55617U 23020BA 23062.85432667 .00085001 00000+0 64503-3 0 9999
L22 55617 42.9989 237.7854 0002171 264.3669 95.6951 15.71354927 3103



Live tracking and technical data element details for STARLINK-5721 (NORAD 55617). STARLINK-5721 can be tracked NOW for your location showing map with azimuth and elevation plus other details from your city location.







IsCatalogInMostPopularTable: catalog: 55617, numindb: 3
Update: records affected: 1



GetName: 55617 STARLINK-5721

Hit Count: updated at: Wed, 22 Mar 2023 16:19:21 GMT